Weather History for Granite Falls, MN

Change the Weather History Date:

Wednesday, September 12, 2012

  Actual Average (KMVE) Record (KMVE)
Temperature  
Mean Temperature 58 °F -  
Max Temperature 64 °F 74 °F 95 °F (1978)
Min Temperature 52 °F 50 °F 33 °F (2007)
Degree Days  
Heating Degree Days 7    
Growing Degree Days 8 (Base 50)    
Moisture  
Dew Point 48 °F    
Average Humidity 70    
Maximum Humidity 88    
Minimum Humidity 37    
Precipitation  
Precipitation 0.00 in - - ()
Sea Level Pressure  
Sea Level Pressure 30.17 in    
Wind  
Wind Speed 7 mph (SW)    
Max Wind Speed 14 mph    
Max Gust Speed 22 mph    
Visibility 10 miles    
Events Rain    
Averages and records for this station are not official NWS values.
T = Trace of Precipitation, MM = Missing Value Source: NWS Daily Summary

Daily Weather History Graph

Daily Weather History Graph

Search for Another Location

Airport:

Trip Planner

Search our weather history database for the weather conditions in past years. The results will help you decide how hot, cold, wet, or windy it might be!

Date:

Astronomy

Sep. 12, 2012 Rise Set
Actual Time 6:58 AM CDT 7:37 PM CDT
Civil Twilight 6:28 AM CDT 8:07 PM CDT
Nautical Twilight 5:53 AM CDT 8:41 PM CDT
Astronomical Twilight 5:17 AM CDT 9:18 PM CDT
Moon 3:08 AM CDT (9/12) 5:31 PM CDT (9/12)
Length of Visible Light 13h 38m
Length of Day
12h 39m
Waning Crescent, 13% of the Moon is Illuminated
Sep 12
Waning Crescent
Sep 15
New
Sep 22
First Quarter
Sep 29
Full
Oct 8
Last Quarter

Hourly Weather History & Observations

Time (CDT) Temp. Dew Point Humidity Pressure Visibility Wind Dir Wind Speed Gust Speed Precip Events Conditions
12:32 AM 64.4 °F 37.8 °F 37% 29.98 in 10.0 mi NNW 13.8 mph 21.9 mph N/A   Mostly Cloudy
12:52 AM 62.2 °F 42.1 °F 48% 29.99 in 10.0 mi NW 6.9 mph - N/A   Mostly Cloudy
1:12 AM 61.2 °F 44.6 °F 54% 30.01 in 10.0 mi WNW 6.9 mph - N/A   Overcast
1:32 AM 61.2 °F 43.7 °F 53% 30.02 in 10.0 mi NW 11.5 mph - N/A   Overcast
1:52 AM 60.3 °F 42.3 °F 51% 30.03 in 10.0 mi NW 9.2 mph 17.3 mph N/A   Light Drizzle
2:12 AM 59.9 °F 41.4 °F 50% 30.04 in 10.0 mi NW 8.1 mph - N/A   Overcast
2:32 AM 59.5 °F 41.4 °F 51% 30.03 in 10.0 mi North 9.2 mph - N/A   Overcast
2:52 AM 59.4 °F 41.5 °F 52% 30.04 in 10.0 mi NNW 4.6 mph - N/A   Overcast
3:12 AM 58.5 °F 43.2 °F 57% 30.06 in 10.0 mi WNW 4.6 mph - N/A   Overcast
3:52 AM 57.6 °F 44.1 °F 61% 30.06 in 10.0 mi West 4.6 mph - N/A   Overcast
4:12 AM 57.4 °F 44.6 °F 62% 30.06 in 10.0 mi NW 4.6 mph - N/A   Overcast
4:32 AM 57.2 °F 45.3 °F 65% 30.07 in 10.0 mi WNW 4.6 mph - N/A   Overcast
4:52 AM 57.2 °F 45.0 °F 64% 30.08 in 10.0 mi NW 4.6 mph - N/A   Overcast
5:12 AM 57.2 °F 45.0 °F 64% 30.11 in 7.0 mi West 3.5 mph - N/A   Overcast
5:33 AM 56.3 °F 45.5 °F 67% 30.10 in 10.0 mi Calm Calm - N/A Rain Light Rain
5:52 AM 55.6 °F 47.3 °F 74% 30.09 in 10.0 mi SSE 4.6 mph - N/A Rain Light Rain
6:12 AM 54.7 °F 48.7 °F 80% 30.10 in 10.0 mi WSW 3.5 mph - N/A   Light Drizzle
6:33 AM 54.5 °F 49.3 °F 83% 30.09 in 10.0 mi West 3.5 mph - N/A   Overcast
6:52 AM 54.3 °F 49.3 °F 83% 30.13 in 10.0 mi SW 4.6 mph - N/A Rain Light Rain
7:12 AM 54.1 °F 49.3 °F 84% 30.14 in 10.0 mi West 4.6 mph - N/A Rain Light Rain
7:33 AM 54.1 °F 49.1 °F 83% 30.16 in 10.0 mi SW 5.8 mph - N/A Rain Light Rain
7:52 AM 54.1 °F 49.1 °F 83% 30.13 in 10.0 mi SSE 4.6 mph - N/A   Overcast
8:12 AM 54.1 °F 49.3 °F 84% 30.11 in 10.0 mi SSE 3.5 mph - N/A   Overcast
8:33 AM 54.7 °F 49.5 °F 83% 30.11 in 10.0 mi South 5.8 mph - N/A   Overcast
8:52 AM 55.2 °F 49.1 °F 80% 30.13 in 10.0 mi SSW 6.9 mph - N/A Rain Light Rain
9:12 AM 55.0 °F 49.5 °F 81% 30.18 in 10.0 mi West 12.7 mph 18.4 mph N/A Rain Light Rain
9:32 AM 55.2 °F 49.1 °F 80% 30.18 in 10.0 mi SSW 4.6 mph - N/A   Light Drizzle
9:52 AM 55.4 °F 48.2 °F 77% 30.21 in 10.0 mi WNW 9.2 mph 17.3 mph N/A Rain Light Rain
10:12 AM 55.8 °F 47.5 °F 74% 30.20 in 10.0 mi NNW 4.6 mph - N/A   Overcast
10:32 AM 56.8 °F 46.8 °F 69% 30.18 in 10.0 mi ESE 6.9 mph - N/A Rain Rain
10:52 AM 55.8 °F 47.8 °F 75% 30.20 in 10.0 mi Calm Calm - N/A   Overcast
11:12 AM 55.8 °F 47.7 °F 74% 30.23 in 10.0 mi Calm Calm - N/A   Overcast
11:32 AM 55.8 °F 50.0 °F 81% 30.20 in 10.0 mi SE 4.6 mph - N/A   Overcast
11:52 AM 56.3 °F 49.3 °F 77% 30.21 in 10.0 mi Calm Calm - N/A   Overcast
12:12 PM 56.5 °F 50.0 °F 79% 30.22 in 10.0 mi South 4.6 mph - N/A   Overcast
12:32 PM 57.2 °F 49.1 °F 74% 30.22 in 10.0 mi South 4.6 mph - N/A   Overcast
12:52 PM 57.4 °F 48.9 °F 73% 30.22 in 10.0 mi South 4.6 mph - N/A   Overcast
1:12 PM 57.9 °F 48.9 °F 72% 30.23 in 10.0 mi South 4.6 mph - N/A   Mostly Cloudy
1:32 PM 58.5 °F 48.4 °F 69% 30.21 in 10.0 mi South 4.6 mph - N/A   Scattered Clouds
1:52 PM 59.9 °F 48.6 °F 66% 30.22 in 10.0 mi SSW 5.8 mph - N/A   Clear
2:12 PM 61.2 °F 47.5 °F 61% 30.23 in 10.0 mi SSW 8.1 mph - N/A   Clear
2:32 PM 62.1 °F 46.2 °F 56% 30.22 in 10.0 mi SSW 8.1 mph - N/A   Clear
2:52 PM 62.8 °F 47.3 °F 57% 30.22 in 10.0 mi South 11.5 mph - N/A   Clear
3:12 PM 62.6 °F 48.4 °F 60% 30.23 in 10.0 mi South 13.8 mph 17.3 mph N/A   Clear
3:32 PM 61.9 °F 48.4 °F 61% 30.22 in 10.0 mi South 11.5 mph - N/A   Clear
4:12 PM 61.9 °F 48.0 °F 60% 30.22 in 10.0 mi South 11.5 mph - N/A   Clear
4:52 PM 62.8 °F 49.5 °F 62% 30.22 in 10.0 mi South 11.5 mph 17.3 mph N/A   Clear
5:12 PM 63.1 °F 49.1 °F 60% 30.22 in 10.0 mi South 10.4 mph - N/A   Clear
5:32 PM 62.1 °F 49.1 °F 62% 30.22 in 10.0 mi South 6.9 mph - N/A   Clear
5:52 PM 63.0 °F 49.3 °F 61% 30.22 in 10.0 mi South 10.4 mph - N/A   Clear
6:12 PM 61.3 °F 49.1 °F 64% 30.23 in 10.0 mi South 8.1 mph - N/A   Clear
6:32 PM 61.3 °F 49.3 °F 65% 30.23 in 10.0 mi South 6.9 mph - N/A   Clear
6:52 PM 60.4 °F 50.0 °F 68% 30.23 in 10.0 mi South 5.8 mph - N/A   Clear
7:12 PM 59.4 °F 50.0 °F 71% 30.23 in 10.0 mi South 5.8 mph - N/A   Clear
7:31 PM 58.5 °F 49.8 °F 73% 30.23 in 10.0 mi South 4.6 mph - N/A   Clear
7:52 PM 57.6 °F 50.0 °F 76% 30.23 in 10.0 mi South 4.6 mph - N/A   Clear
8:12 PM 56.8 °F 49.6 °F 77% 30.24 in 10.0 mi South 6.9 mph - N/A   Clear
8:32 PM 56.3 °F 50.0 °F 79% 30.24 in 10.0 mi South 5.8 mph - N/A   Clear
8:52 PM 56.1 °F 50.2 °F 80% 30.25 in 10.0 mi South 6.9 mph - N/A   Clear
9:12 PM 55.4 °F 50.0 °F 82% 30.25 in 10.0 mi South 6.9 mph - N/A   Clear
9:32 PM 55.4 °F 49.6 °F 81% 30.26 in 10.0 mi South 5.8 mph - N/A   Clear
9:52 PM 55.0 °F 49.3 °F 81% 30.26 in 10.0 mi SSW 5.8 mph - N/A   Clear
10:12 PM 55.0 °F 48.7 °F 79% 30.26 in 10.0 mi SSW 5.8 mph - N/A   Clear
10:32 PM 54.1 °F 48.6 °F 81% 30.26 in 10.0 mi SSW 4.6 mph - N/A   Clear
10:52 PM 54.0 °F 48.9 °F 83% 30.26 in 10.0 mi SW 4.6 mph - N/A   Clear
11:12 PM 52.3 °F 48.2 °F 86% 30.26 in 10.0 mi WSW 6.9 mph - N/A   Clear
11:32 PM 52.3 °F 48.7 °F 88% 30.26 in 10.0 mi WSW 6.9 mph - N/A   Clear
11:51 PM 52.2 °F 48.7 °F 88% 30.27 in 10.0 mi West 4.6 mph - N/A   Clear